Emmenbrucke, Switzerland

11:44 AM CET am 22. Februar 2017 (GMT +0100)
Emmen Mil

Wetter Verlauf für LSME - Februar, 2017

Change the Weather History Date:

Freitag, Februar 17, 2017

  Actual Average Record
Temperature  
mittlereTemperatur 38 °F -  
Max. Temperatur 42 °F - - ()
Min.Temperatur 33 °F - - ()
Degree Days  
Heizgradtage 28    
Moisture  
Taupunkt 38 °F    
Average Humidity 92    
Maximum Humidity 100    
Minimum Humidity 81    
Niederschlag  
Niederschlag 0.00 inch - - ()
Luftdruck in Meereshöhe  
Luftdruck in Meereshöhe 30.35 inch    
Wind  
Windgeschwindigkeit 2 mph ()    
Max. Windgeschwindigkeit 6 mph    
Max Gust Speed -    
Sichtweite 4.3 Meilen    
Ereignisse Nebel , Regen    
T = Trace of Precipitation, MM = Missing Value Source: Averaged Metar Reports

Daily Weather History Graph

Daily Weather History Graph

Search for Another Location

Airport or City:

Trip Planner

Search our weather history database for the weather conditions in past years. The results will help you decide how hot, cold, wet, or windy it might be!

Date:

Astronomie

Feb. 17, 2017 Aufgang Untergang
Genaue Zeit 07:28 CET 17:54 CET
Bürgerliche Dämmerung 06:56 CET 18:25 CET
Nautische Dämmerung 06:21 CET 19:01 CET
Astronomische Dämmerung 05:45 CET 19:36 CET
Mond kein Mondaufgang 10:36 CET (2/17)
Länge des sichtbaren Lichts 11h 28m
Tageslänge
10h 26m
Drittes Viertel, 63% of the Moon is Illuminated
Feb 17
Drittes Viertel
Feb 18
Letztes Viertel
Feb 26
Neu
Mrz 5
Erstes Viertel
Mrz 12
Vollmond

Hourly Weather History & Observations

Zeit (CET) Temp. Windchill Taupunkt Feuchtigkeit Druck Sichtweite Wind Dir Windgeschwindigkeit Böengeschwindigkeit Precip Ereignisse Wetterzustand
1:49 AM 41.0 °F 39.0 °F 35.6 °F 81% 30.36 inch 6.2 mi Südwest 3.5 mph - N/A Regen Leichte Regenschauer
2:50 AM 41.0 °F - 37.4 °F 87% 30.36 inch 6.2 mi Wechselnd 2.3 mph - N/A   Bedeckt
3:50 AM 41.0 °F 39.0 °F 35.6 °F 81% 30.36 inch 6.2 mi Südwest 3.5 mph - N/A   Bedeckt
4:50 AM 41.0 °F 39.0 °F 37.4 °F 87% 30.33 inch 6.2 mi West-Südwest 3.5 mph - N/A   Bedeckt
5:50 AM 41.0 °F - 35.6 °F 81% 30.33 inch 6.2 mi Wechselnd 2.3 mph - N/A   Bedeckt
6:50 AM 39.2 °F - 37.4 °F 93% 30.33 inch 6.2 mi Wechselnd 2.3 mph - N/A   Bedeckt
7:50 AM 41.0 °F - 37.4 °F 87% 30.33 inch 6.2 mi Ruhig Ruhig - N/A Regen Leichte Regenschauer
8:50 AM 41.0 °F - 39.2 °F 93% 30.33 inch 2.5 mi Wechselnd 2.3 mph - N/A Regen Regen
9:50 AM 41.0 °F 37.1 °F 41.0 °F 100% 30.33 inch 2.2 mi Süd 5.8 mph - N/A Regen Leichter Regen
10:50 AM 42.8 °F 40.1 °F 41.0 °F 93% 30.36 inch 3.1 mi Süd-Südost 4.6 mph - N/A Regen Regen
11:50 AM 42.8 °F - 41.0 °F 93% 30.36 inch 3.1 mi Wechselnd 2.3 mph - N/A Regen Leichter Regen
12:50 PM 42.8 °F 41.1 °F 41.0 °F 93% 30.36 inch 3.1 mi Nord-Nordost 3.5 mph - N/A Regen Regen
1:50 PM 42.8 °F - 41.0 °F 93% 30.36 inch 3.1 mi Wechselnd 2.3 mph - N/A Regen Leichter Regen
2:50 PM 41.0 °F - 39.2 °F 93% 30.36 inch 3.7 mi Ruhig Ruhig - N/A Regen Regen
4:49 PM 39.2 °F 35.0 °F 39.2 °F 100% 30.36 inch 6.2 mi Süd-Südwest 5.8 mph - N/A Regen Leichte Regenschauer
5:50 PM 39.2 °F 35.0 °F 37.4 °F 93% 30.36 inch 6.2 mi Süd-Südwest 5.8 mph - N/A   Bedeckt
6:50 PM 39.2 °F 37.0 °F 37.4 °F 93% 30.36 inch 6.2 mi Süd-Südwest 3.5 mph - N/A   Bedeckt
7:50 PM 39.2 °F 37.0 °F 37.4 °F 93% 30.36 inch 6.2 mi West-Südwest 3.5 mph - N/A   Teils Wolkig
8:50 PM 37.4 °F - 35.6 °F 93% 30.36 inch - Wechselnd 2.3 mph - N/A   Teils Wolkig
9:50 PM 33.8 °F - 33.8 °F 100% 30.36 inch 0.6 mi Ruhig Ruhig - N/A   Wolkig
10:50 PM 33.8 °F - 33.8 °F 100% 30.36 inch 0.4 mi Ruhig Ruhig - N/A Nebel Nebel
11:49 PM 33.8 °F - 33.8 °F 100% 30.33 inch 0.8 mi Ruhig Ruhig - N/A Nebel Nebel